{"data":{"norad_id":66855,"epoch":"2026-05-24T16:38:12.961248Z","epoch_age_seconds":98574,"freshness":"FRESH","line1":"1 66855U 25281H   26144.69320557  .00011525  00000+0  42755-3 0  9991","line2":"2 66855  43.0010 273.8654 0001451 262.2378  97.8309 15.27590557 27816","mean_motion":15.27590557,"eccentricity":0.0001451,"inclination_deg":43.001,"raan_deg":273.8654,"arg_perigee_deg":262.2378,"mean_anomaly_deg":97.8309,"bstar":0.00042755,"rev_number":2781,"period_min":94.266097247157,"perigee_km":482.0219312501,"apogee_km":484.01303828158,"semimajor_km":6861.1544847658,"source":"CELESTRAK","updated_at":"2026-05-25T13:38:21.341332Z"}}